Weather History for Rogers, AR

Change the Weather History Date:

Wednesday, September 12, 2012

  Actual Average Record
Temperature  
Mean Temperature 74 °F -  
Max Temperature 84 °F 79 °F 90 °F (2011)
Min Temperature 64 °F 59 °F 53 °F (2007)
Cooling Degree Days 9    
Growing Degree Days 24 (Base 50)    
Moisture  
Dew Point 58 °F    
Average Humidity 60    
Maximum Humidity 84    
Minimum Humidity 35    
Precipitation  
Precipitation 0.00 in - - ()
Sea Level Pressure  
Sea Level Pressure 30.08 in    
Wind  
Wind Speed 9 mph (SE)    
Max Wind Speed 14 mph    
Max Gust Speed 21 mph    
Visibility 10 miles    
Events      
Averages and records for this station are not official NWS values.
T = Trace of Precipitation, MM = Missing Value Source: NWS Daily Summary

Daily Weather History Graph

Daily Weather History Graph

Search for Another Location

Airport:

Trip Planner

Search our weather history database for the weather conditions in past years. The results will help you decide how hot, cold, wet, or windy it might be!

Date:

Astronomy

Sep. 12, 2012 Rise Set
Actual Time 6:56 AM CDT 7:27 PM CDT
Civil Twilight 6:30 AM CDT 7:53 PM CDT
Nautical Twilight 6:00 AM CDT 8:23 PM CDT
Astronomical Twilight 5:29 AM CDT 8:54 PM CDT
Moon 3:19 AM CDT (9/12) 5:11 PM CDT (9/12)
Length of Visible Light 13h 22m
Length of Day
12h 30m
Waning Crescent, 13% of the Moon is Illuminated
Sep 12
Waning Crescent
Sep 15
New
Sep 22
First Quarter
Sep 29
Full
Oct 8
Last Quarter

Hourly Weather History & Observations

Time (CDT) Temp. Heat Index Dew Point Humidity Pressure Visibility Wind Dir Wind Speed Gust Speed Precip Events Conditions
12:57 AM 69.1 °F - 59.0 °F 70% 30.07 in 10.0 mi SSE 10.4 mph - N/A   Clear
1:57 AM 66.9 °F - 59.0 °F 76% 30.08 in 10.0 mi SE 5.8 mph - N/A   Clear
2:57 AM 64.9 °F - 59.0 °F 81% 30.07 in 10.0 mi SE 4.6 mph - N/A   Clear
3:57 AM 64.0 °F - 59.0 °F 84% 30.07 in 10.0 mi SE 5.8 mph - N/A   Clear
4:57 AM 64.0 °F - 59.0 °F 84% 30.06 in 10.0 mi SE 8.1 mph - N/A   Clear
5:57 AM 64.0 °F - 57.9 °F 80% 30.08 in 10.0 mi SE 8.1 mph - N/A   Clear
6:57 AM 64.0 °F - 57.9 °F 80% 30.09 in 10.0 mi ESE 9.2 mph - N/A   Clear
7:57 AM 66.9 °F - 57.9 °F 73% 30.12 in 10.0 mi SE 9.2 mph - N/A   Clear
8:57 AM 70.0 °F - 57.9 °F 65% 30.13 in 10.0 mi SSE 12.7 mph - N/A   Clear
10:57 AM 78.1 °F - 60.1 °F 54% 30.13 in 10.0 mi SSE 11.5 mph 17.3 mph N/A   Clear
11:57 AM 80.1 °F 80.7 °F 59.0 °F 48% 30.12 in 10.0 mi South 11.5 mph - N/A   Clear
12:57 PM 81.0 °F 81.1 °F 57.9 °F 45% 30.10 in 10.0 mi South 11.5 mph - N/A   Clear
1:57 PM 82.0 °F 82.0 °F 57.9 °F 44% 30.08 in 10.0 mi SE 11.5 mph 18.4 mph N/A   Clear
2:57 PM 82.9 °F 82.1 °F 55.9 °F 39% 30.06 in 10.0 mi SSE 13.8 mph - N/A   Clear
3:57 PM 84.0 °F 82.6 °F 54.0 °F 35% 30.04 in 10.0 mi SE 12.7 mph 20.7 mph N/A   Clear
4:57 PM 84.0 °F 83.0 °F 55.9 °F 38% 30.04 in 10.0 mi South 10.4 mph 16.1 mph N/A   Clear
5:57 PM 82.9 °F 82.4 °F 57.0 °F 41% 30.04 in 10.0 mi SE 9.2 mph 18.4 mph N/A   Clear
6:57 PM 79.0 °F - 57.9 °F 48% 30.04 in 10.0 mi SE 8.1 mph - N/A   Clear
7:57 PM 75.0 °F - 57.9 °F 55% 30.06 in 10.0 mi SE 6.9 mph - N/A   Clear
8:57 PM 73.0 °F - 57.9 °F 59% 30.08 in 10.0 mi ESE 6.9 mph - N/A   Clear
9:57 PM 72.0 °F - 57.9 °F 61% 30.09 in 10.0 mi ESE 6.9 mph - N/A   Clear
11:57 PM 70.0 °F - 60.1 °F 71% 30.11 in 10.0 mi ESE 8.1 mph - N/A   Clear